| time (UTC) | temp F | wind direction | speed MPH | gust MPH | rain 1hr in | rain 24hr in | rain mn in | humidity % | barometer mb |
| 20260902124602 | 67 | 1 | 0.0 | 0.0 | 0.00 | 0.00 | 0.00 | 93 | 1022.0 |
| 20260902123057 | 67 | 1 | 0.0 | 0.0 | 0.00 | 0.00 | 0.00 | 93 | 1022.0 |
| 20260902121602 | 67 | 1 | 0.0 | 0.0 | 0.00 | 0.00 | 0.00 | 93 | 1022.0 |
| 20260902120055 | 66 | 1 | 0.0 | 0.0 | 0.00 | 0.00 | 0.00 | 93 | 1021.8 |
| 20260902114557 | 66 | 1 | 0.0 | 0.0 | 0.00 | 0.00 | 0.00 | 92 | 1021.7 |
| 20260902113057 | 66 | 1 | 0.0 | 0.0 | 0.00 | 0.00 | 0.00 | 92 | 1021.5 |
| 20260902111550 | 67 | 1 | 0.0 | 0.0 | 0.00 | 0.00 | 0.00 | 92 | 1021.4 |
| 20260902110051 | 67 | 1 | 0.0 | 0.0 | 0.00 | 0.00 | 0.00 | 92 | 1021.4 |
| 20260902104552 | 67 | 1 | 0.0 | 0.0 | 0.00 | 0.00 | 0.00 | 93 | 1021.4 |
| 20260902103049 | 67 | 1 | 0.0 | 0.0 | 0.00 | 0.00 | 0.00 | 92 | 1021.2 |
| 20260902101546 | 67 | 1 | 0.0 | 0.0 | 0.00 | 0.00 | 0.00 | 92 | 1021.3 |
| 20260902094542 | 68 | 1 | 0.0 | 0.0 | 0.00 | 0.00 | 0.00 | 92 | 1021.1 |
| 20260902093041 | 68 | 1 | 0.0 | 0.0 | 0.00 | 0.00 | 0.00 | 92 | 1020.9 |
| 20260902091600 | 68 | 1 | 0.0 | 0.0 | 0.00 | 0.00 | 0.00 | 92 | 1020.7 |
| 20260902090040 | 68 | 1 | 0.0 | 0.0 | 0.00 | 0.00 | 0.00 | 92 | 1020.6 |
| 20260902084542 | 68 | 1 | 0.0 | 0.0 | 0.00 | 0.00 | 0.00 | 92 | 1020.5 |
| 20260902083037 | 68 | 1 | 0.0 | 0.0 | 0.00 | 0.00 | 0.00 | 92 | 1020.5 |
| 20260902081537 | 68 | 1 | 0.0 | 0.0 | 0.00 | 0.00 | 0.00 | 92 | 1020.5 |
| 20260902080049 | 69 | 1 | 0.0 | 0.0 | 0.00 | 0.00 | 0.00 | 92 | 1020.5 |
| 20260902074534 | 69 | 1 | 0.0 | 0.0 | 0.00 | 0.00 | 0.00 | 92 | 1020.5 |
| 20260902073034 | 69 | 1 | 0.0 | 0.0 | 0.00 | 0.00 | 0.00 | 92 | 1020.4 |
| 20260902071551 | 69 | 1 | 0.0 | 0.0 | 0.00 | 0.00 | 0.00 | 91 | 1020.5 |
| 20260902070032 | 69 | 1 | 0.0 | 0.0 | 0.00 | 0.00 | 0.00 | 91 | 1020.6 |
| 20260902064531 | 69 | 1 | 0.0 | 0.0 | 0.00 | 0.00 | 0.00 | 91 | 1020.6 |
| 20260902063039 | 69 | 1 | 0.0 | 0.0 | 0.00 | 0.00 | 0.00 | 91 | 1020.7 |
| 20260902061541 | 70 | 1 | 0.0 | 0.0 | 0.00 | 0.00 | 0.00 | 90 | 1020.9 |
| 20260902060031 | 70 | 1 | 0.0 | 0.0 | 0.00 | 0.00 | 0.00 | 90 | 1020.9 |
| 20260902054535 | 70 | 1 | 0.0 | 0.0 | 0.00 | 0.00 | 0.00 | 90 | 1021.1 |
| 20260902053025 | 70 | 1 | 0.0 | 0.0 | 0.00 | 0.00 | 0.00 | 89 | 1021.0 |
| 20260902051521 | 70 | 1 | 0.0 | 0.0 | 0.00 | 0.00 | 0.00 | 89 | 1020.9 |
| 20260902050029 | 71 | 1 | 0.0 | 0.0 | 0.00 | 0.00 | 0.00 | 89 | 1020.7 |
| 20260902044518 | 71 | 1 | 0.0 | 0.0 | 0.00 | 0.00 | 0.00 | 88 | 1020.6 |
| 20260902043014 | 71 | 1 | 0.0 | 0.0 | 0.00 | 0.00 | 0.00 | 88 | 1020.5 |
| 20260902041517 | 72 | 1 | 0.0 | 0.0 | 0.00 | 0.00 | 0.00 | 87 | 1020.6 |
| 20260902040011 | 72 | 1 | 0.0 | 0.0 | 0.00 | 0.00 | 0.00 | 87 | 1020.4 |
| 20260902034510 | 72 | 1 | 0.0 | 0.0 | 0.00 | 0.00 | 0.00 | 87 | 1020.4 |
| 20260902033009 | 73 | 1 | 0.0 | 0.0 | 0.00 | 0.00 | 0.00 | 86 | 1020.4 |
| 20260902031509 | 73 | 1 | 0.0 | 0.0 | 0.00 | 0.00 | 0.00 | 87 | 1020.6 |
| 20260902030009 | 73 | 1 | 0.0 | 0.0 | 0.00 | 0.00 | 0.00 | 85 | 1020.6 |
| 20260902024511 | 74 | 1 | 0.0 | 0.0 | 0.00 | 0.00 | 0.00 | 85 | 1020.7 |
| 20260902023015 | 74 | 1 | 0.0 | 0.0 | 0.00 | 0.00 | 0.00 | 85 | 1020.6 |
| 20260902021507 | 74 | 1 | 0.0 | 0.0 | 0.00 | 0.00 | 0.00 | 85 | 1020.5 |
| 20260902020007 | 75 | 1 | 0.0 | 0.0 | 0.00 | 0.00 | 0.00 | 84 | 1020.5 |
| 20260902014506 | 75 | 1 | 0.0 | 0.0 | 0.00 | 0.00 | 0.00 | 83 | 1020.3 |
| 20260902013006 | 75 | 1 | 0.0 | 0.0 | 0.00 | 0.00 | 0.00 | 83 | 1020.1 |
| 20260902011509 | 76 | 1 | 0.0 | 0.0 | 0.00 | 0.00 | 0.00 | 82 | 1020.2 |
| 20260902010007 | 76 | 1 | 0.0 | 0.0 | 0.00 | 0.00 | 0.00 | 83 | 1019.9 |
| 20260902004504 | 76 | 1 | 0.0 | 0.0 | 0.00 | 0.00 | 0.00 | 81 | 1019.8 |
| 20260902003004 | 77 | 1 | 0.0 | 0.0 | 0.00 | 0.00 | 0.00 | 80 | 1019.7 |
| 20260902001505 | 77 | 1 | 0.0 | 0.0 | 0.00 | 0.00 | 0.00 | 79 | 1019.7 |
| 20260902000006 | 78 | 1 | 0.0 | 0.0 | 0.00 | 0.00 | 0.00 | 77 | 1019.7 |
| 20260901234502 | 79 | 1 | 0.0 | 0.0 | 0.00 | 0.00 | 0.00 | 76 | 1019.7 |
| 20260901233005 | 79 | 1 | 0.0 | 0.0 | 0.00 | 0.00 | 0.00 | 75 | 1019.7 |
| 20260901231501 | 80 | 1 | 0.0 | 0.0 | 0.00 | 0.00 | 0.00 | 74 | 1019.6 |
| 20260901230004 | 81 | 1 | 0.0 | 0.0 | 0.00 | 0.00 | 0.00 | 76 | 1019.6 |
| 20260901224600 | 82 | 1 | 0.0 | 0.0 | 0.00 | 0.00 | 0.00 | 75 | 1019.4 |
| 20260901223104 | 82 | 1 | 0.0 | 0.0 | 0.00 | 0.00 | 0.00 | 76 | 1019.3 |
| 20260901221620 | 82 | 1 | 0.0 | 0.0 | 0.00 | 0.00 | 0.00 | 78 | 1019.2 |
| 20260901220058 | 82 | 1 | 0.0 | 0.0 | 0.00 | 0.00 | 0.00 | 75 | 1019.2 |
| 20260901214557 | 83 | 1 | 0.0 | 0.0 | 0.00 | 0.00 | 0.00 | 76 | 1019.3 |
| 20260901213100 | 83 | 1 | 0.0 | 0.0 | 0.00 | 0.00 | 0.00 | 76 | 1019.4 |
| 20260901211555 | 83 | 1 | 0.0 | 0.0 | 0.00 | 0.00 | 0.00 | 76 | 1019.4 |
| 20260901210053 | 84 | 1 | 0.0 | 0.0 | 0.00 | 0.00 | 0.00 | 74 | 1019.3 |
| 20260901204551 | 84 | 1 | 0.0 | 0.0 | 0.00 | 0.00 | 0.00 | 66 | 1019.4 |
| 20260901203049 | 84 | 1 | 0.0 | 0.0 | 0.00 | 0.00 | 0.00 | 65 | 1019.6 |
| 20260901201548 | 84 | 1 | 0.0 | 0.0 | 0.00 | 0.00 | 0.00 | 67 | 1019.8 |
| 20260901194556 | 84 | 1 | 0.0 | 0.0 | 0.00 | 0.00 | 0.00 | 69 | 1019.8 |
| 20260901193042 | 84 | 1 | 0.0 | 0.0 | 0.00 | 0.00 | 0.00 | 66 | 1020.1 |
| 20260901191541 | 84 | 1 | 0.0 | 0.0 | 0.00 | 0.00 | 0.00 | 70 | 1020.2 |
| 20260901190046 | 84 | 1 | 0.0 | 0.0 | 0.00 | 0.00 | 0.00 | 69 | 1020.2 |
| 20260901184536 | 84 | 1 | 0.0 | 0.0 | 0.00 | 0.00 | 0.00 | 63 | 1020.4 |
| 20260901183033 | 84 | 1 | 0.0 | 0.0 | 0.00 | 0.00 | 0.00 | 68 | 1020.6 |
| 20260901181536 | 84 | 1 | 0.0 | 0.0 | 0.00 | 0.00 | 0.00 | 72 | 1020.8 |
| 20260901180034 | 84 | 1 | 0.0 | 0.0 | 0.00 | 0.00 | 0.00 | 70 | 1020.8 |
| 20260901174529 | 84 | 1 | 0.0 | 0.0 | 0.00 | 0.00 | 0.00 | 73 | 1020.9 |
| 20260901173026 | 84 | 1 | 0.0 | 0.0 | 0.00 | 0.00 | 0.00 | 71 | 1021.1 |
| 20260901171524 | 83 | 1 | 0.0 | 0.0 | 0.00 | 0.00 | 0.00 | 74 | 1021.3 |
| 20260901170029 | 82 | 1 | 0.0 | 0.0 | 0.00 | 0.00 | 0.00 | 76 | 1021.3 |
| 20260901164518 | 81 | 1 | 0.0 | 0.0 | 0.00 | 0.00 | 0.00 | 79 | 1021.5 |
| 20260901163019 | 80 | 1 | 0.0 | 0.0 | 0.00 | 0.00 | 0.00 | 82 | 1021.7 |
| 20260901161514 | 79 | 1 | 0.0 | 0.0 | 0.00 | 0.00 | 0.00 | 84 | 1021.8 |
| 20260901160008 | 78 | 1 | 0.0 | 0.0 | 0.00 | 0.00 | 0.00 | 86 | 1022.2 |
| 20260901154504 | 76 | 1 | 0.0 | 0.0 | 0.00 | 0.00 | 0.00 | 87 | 1022.3 |
| 20260901153123 | 75 | 1 | 0.0 | 0.0 | 0.00 | 0.00 | 0.00 | 88 | 1022.5 |
| 20260901151555 | 74 | 1 | 0.0 | 0.0 | 0.00 | 0.00 | 0.00 | 90 | 1022.6 |
| 20260901150052 | 73 | 1 | 0.0 | 0.0 | 0.00 | 0.00 | 0.00 | 91 | 1022.6 |
| 20260901144551 | 72 | 1 | 0.0 | 0.0 | 0.00 | 0.00 | 0.00 | 93 | 1022.5 |
| 20260901143049 | 71 | 1 | 0.0 | 0.0 | 0.00 | 0.00 | 0.00 | 94 | 1022.6 |
| 20260901141545 | 70 | 1 | 0.0 | 0.0 | 0.00 | 0.00 | 0.00 | 95 | 1022.7 |
| 20260901140043 | 69 | 1 | 0.0 | 0.0 | 0.00 | 0.00 | 0.00 | 95 | 1022.8 |
| 20260901134542 | 67 | 1 | 0.0 | 0.0 | 0.00 | 0.00 | 0.00 | 95 | 1022.9 |
| 20260901133043 | 67 | 1 | 0.0 | 0.0 | 0.00 | 0.00 | 0.00 | 95 | 1022.8 |
| 20260901131543 | 67 | 1 | 0.0 | 0.0 | 0.00 | 0.00 | 0.00 | 95 | 1022.8 |
| 20260901130055 | 66 | 1 | 0.0 | 0.0 | 0.00 | 0.00 | 0.00 | 95 | 1022.8 |